GEFSNGP_500_meanwind_102.txt.gz
Wind_Speed
14 12 11 8 8 9 11 11 11 12 13 15 17 17 17 17 16 15 15 15 15 16 16 16 17 18 19 20 21 21 22 24 25 26 28 29 30 31 32 33 35 36 37 38
13 12 11 11 10 11 13 13 13 14 15 18 19 17 17 17 17 17 17 16 16 16 17 17 18 19 20 21 22 23 24 25 27 28 29 30 31 33 34 36 37 38 39 40
13 12 12 12 11 13 13 13 14 15 17 19 19 17 17 18 18 18 18 18 17 17 18 18 19 20 21 22 23 24 25 26 28 29 31 32 33 35 36 37 39 40 41 42
14 13 12 11 12 13 13 14 15 16 19 20 19 19 18 18 18 18 18 18 18 18 19 19 20 21 22 23 24 25 26 28 29 31 33 34 36 37 38 40 41 42 42 43
15 14 13 13 14 14 13 13 15 17 18 19 18 19 19 18 18 18 19 19 20 20 20 21 21 22 23 24 25 26 28 29 31 33 34 36 37 39 40 41 42 43 43 43
17 16 16 18 18 16 14 14 16 17 18 18 18 18 20 20 20 20 20 20 21 22 22 22 23 24 25 26 28 28 30 31 33 34 36 37 39 40 42 42 43 44 44 44
17 17 18 21 20 18 18 17 17 18 19 20 20 19 21 22 22 22 22 23 23 23 23 24 24 25 26 28 30 30 32 33 35 37 38 39 41 42 43 43 44 45 44 44
19 19 22 23 23 22 19 17 18 20 22 23 23 22 22 23 23 23 23 24 24 24 25 25 26 27 29 30 32 33 34 36 37 39 40 41 43 44 45 45 46 45 44 42
22 22 24 25 24 24 21 21 21 23 25 25 25 24 24 25 25 24 25 25 25 25 26 27 28 29 31 32 34 36 36 38 40 40 42 43 45 46 46 46 45 44 44 42
23 24 25 26 26 23 23 24 25 26 26 26 26 25 26 26 26 26 26 27 27 27 27 28 30 31 33 35 36 38 38 39 41 42 43 44 46 47 47 46 45 44 43 42
27 26 25 27 25 26 26 26 27 27 27 26 26 27 28 28 28 28 29 29 29 29 30 32 32 34 35 37 38 39 40 42 43 45 45 46 47 48 48 47 46 44 43 41
28 27 26 26 26 26 27 27 27 28 28 27 28 29 29 30 30 30 31 31 31 31 33 34 35 36 38 39 40 41 43 44 45 46 46 47 48 48 48 47 44 43 41 40
29 28 26 26 27 27 28 28 28 29 29 30 30 30 31 32 32 32 33 33 34 34 35 36 37 38 40 41 42 43 44 45 46 48 49 49 49 49 48 46 43 42 40 39
28 28 28 28 27 28 29 29 29 30 30 31 31 32 32 33 34 34 35 35 36 37 38 39 40 41 42 43 44 45 46 47 49 49 50 50 50 49 48 45 43 41 39 38
28 28 28 28 29 29 30 31 31 31 32 32 32 33 34 34 35 36 37 37 38 39 40 41 42 43 44 45 46 47 48 49 50 51 50 50 50 49 46 44 42 40 38 36
28 29 29 30 30 30 31 32 32 33 34 34 34 35 36 36 37 38 38 39 40 41 42 42 43 44 45 47 48 49 50 51 51 51 51 50 49 48 46 43 41 39 37 35
30 30 31 32 32 33 33 34 34 35 36 36 36 37 37 38 39 40 41 41 42 43 44 45 46 47 48 49 50 51 51 52 51 51 50 49 48 47 45 42 40 38 36 34
32 33 33 34 34 34 35 35 36 36 37 37 38 39 39 40 41 42 43 44 45 46 47 48 48 49 50 51 51 52 52 52 52 51 49 48 47 45 43 41 38 36 35 33
34 35 35 36 36 36 37 37 37 38 38 39 40 41 42 42 43 44 45 47 48 49 50 50 51 51 51 52 52 51 51 51 50 49 48 47 46 43 41 39 37 35 34 32
34 35 36 37 37 38 38 39 39 40 41 41 42 43 44 45 46 47 48 49 50 51 51 51 51 52 52 52 51 51 50 50 49 48 47 45 44 41 40 38 35 33 31 29
35 36 37 38 39 39 40 41 41 42 43 44 44 45 46 46 47 48 49 50 51 51 51 51 52 52 52 51 51 51 50 49 48 47 45 43 41 39 37 35 32 30 29 28
37 38 39 39 40 41 42 42 43 44 45 45 46 47 48 48 49 49 50 51 51 51 51 51 52 52 52 51 51 50 49 48 47 45 43 40 38 36 34 31 29 27 26 25
38 39 40 40 41 42 43 44 45 46 46 47 48 48 48 49 49 50 50 51 52 52 52 52 52 52 51 51 50 49 47 46 44 42 40 37 35 33 30 29 27 25 24 23
40 41 41 42 43 44 45 46 47 47 48 48 49 49 50 50 50 51 51 52 52 52 52 52 52 51 50 49 49 47 45 44 42 39 37 34 31 30 28 26 25 23 22 21
42 42 43 44 44 45 46 46 47 47 48 48 49 49 50 50 51 51 51 51 51 51 51 51 50 49 48 47 45 44 42 40 37 34 32 30 28 27 25 24 22 21 20 19
43 43 44 45 45 45 46 47 47 48 49 49 49 49 50 50 50 50 50 50 50 49 49 49 47 46 45 43 41 39 38 35 32 30 28 26 24 23 22 20 19 18 18 18
44 44 45 45 46 46 47 47 48 48 48 48 48 48 48 48 48 48 48 47 48 47 46 45 44 43 41 38 37 35 33 30 28 26 25 23 21 19 18 18 17 17 17 16

GEFSNGP_500_meanwind_108.txt.gz
Wind_Speed
18 17 17 17 16 16 16 14 14 12 11 10 9 8 7 6 5 4 4 5 6 6 6 6 7 8 9 10 12 13 14 15 17 18 20 22 24 25 27 28 29 31 32 33
19 18 18 18 17 16 16 16 15 15 14 12 11 9 9 8 7 6 6 7 8 8 8 8 9 10 11 13 14 15 16 17 18 20 22 24 26 28 29 30 31 32 33 35
19 18 18 18 17 17 17 17 17 17 15 14 13 11 11 10 9 8 8 8 9 10 11 10 11 13 14 15 16 18 19 20 21 22 24 26 27 29 30 31 33 33 35 36
19 20 20 16 17 17 18 18 18 18 16 15 12 11 11 10 10 10 10 10 11 12 13 13 14 15 16 17 19 20 21 22 24 25 26 28 29 30 31 33 34 35 36 38
21 20 18 18 18 18 19 20 19 18 17 15 12 11 11 11 11 12 12 13 13 14 14 16 16 17 18 20 21 22 23 24 26 26 27 29 30 32 33 34 35 36 38 39
22 21 20 19 19 20 20 20 20 19 18 16 15 13 12 13 14 13 14 15 16 16 17 18 19 19 21 22 23 24 25 26 27 28 29 31 32 33 34 35 36 38 39 40
20 22 21 20 20 20 20 20 19 20 20 19 18 16 15 15 16 16 17 17 18 19 19 20 21 22 23 24 25 26 27 28 29 30 32 33 34 35 36 37 38 39 40 41
19 21 20 18 19 21 21 21 21 20 19 19 17 17 17 18 18 19 20 20 20 20 21 22 23 24 25 26 27 28 29 30 31 32 33 34 35 36 37 39 40 40 41 42
20 20 20 18 18 20 20 21 21 21 20 21 20 20 20 20 20 21 21 21 22 23 23 24 25 26 28 29 29 30 31 32 33 34 35 36 37 38 39 40 41 42 43 43
24 23 20 19 19 20 19 21 21 22 22 23 22 21 21 21 21 22 22 23 23 24 24 26 27 28 29 30 31 32 33 34 34 35 36 37 38 40 41 42 43 44 44 44
22 21 21 23 22 22 23 23 23 23 22 24 23 21 22 23 23 23 24 25 25 26 27 28 29 30 31 32 33 33 35 36 37 38 38 39 40 41 42 43 44 45 45 45
22 22 23 23 23 22 21 21 20 20 22 22 21 21 23 23 24 25 26 27 27 28 29 30 30 31 33 34 34 35 36 37 38 39 40 41 42 43 44 45 45 45 46 45
24 23 23 23 23 21 20 19 20 21 22 21 22 23 23 24 25 26 27 28 29 29 30 31 32 33 34 36 37 37 37 38 39 41 42 43 44 45 45 45 46 47 46 46
24 24 23 23 23 22 21 21 21 22 23 23 23 24 25 26 27 28 29 30 30 31 32 33 34 35 36 38 38 39 40 41 42 43 45 45 46 46 47 47 47 46 46 46
24 24 24 23 22 22 21 21 21 22 22 23 24 24 25 27 28 29 31 31 32 33 34 35 36 37 39 39 40 41 42 43 44 45 46 47 47 48 48 48 48 47 46 45
24 24 23 23 23 23 22 22 22 22 23 24 25 26 27 28 30 31 32 33 34 35 36 37 38 39 40 41 42 43 44 45 46 47 47 48 49 49 49 48 48 47 46 45
24 25 25 25 24 24 24 24 23 24 25 26 27 28 29 31 32 33 35 35 36 37 38 39 40 41 42 43 44 45 46 46 47 48 49 49 50 50 50 49 48 47 46 44
23 23 24 23 23 23 23 24 25 26 27 28 30 30 31 32 34 35 36 37 38 38 39 41 42 43 44 45 46 47 47 48 49 49 50 51 51 51 51 50 49 47 45 42
22 23 23 22 22 23 24 26 27 28 29 31 32 33 34 35 36 37 37 38 39 40 42 43 44 45 46 47 47 48 49 50 50 51 51 52 52 52 51 50 48 46 44 41
23 23 23 23 24 25 27 28 29 30 31 33 34 35 36 37 38 39 40 41 42 43 44 45 46 47 48 48 49 50 51 51 52 52 52 52 51 50 49 48 46 43 40 37
23 23 24 25 26 27 29 30 31 33 34 35 36 37 38 39 41 41 42 43 44 44 45 46 47 48 49 50 51 51 52 52 52 52 51 50 49 48 47 45 43 40 37 35
25 26 28 29 30 31 32 33 34 35 36 37 38 39 40 41 42 43 44 45 45 46 47 48 49 50 50 51 51 51 51 51 50 50 49 48 47 45 44 42 39 36 34 32
29 30 31 32 33 34 35 36 36 37 38 39 40 41 42 42 43 44 45 46 47 48 49 49 49 50 50 49 49 49 49 49 49 48 47 46 44 42 39 37 34 32 30 28
33 34 34 35 36 36 37 38 39 40 40 41 42 43 43 44 45 46 47 47 48 48 48 49 49 49 49 48 48 48 48 47 47 45 43 41 39 36 33 31 29 27 26 23
37 37 38 38 38 39 39 40 40 41 41 42 43 44 45 46 46 47 47 47 48 48 48 48 48 48 48 48 47 47 46 44 42 40 39 36 33 31 29 27 25 24 22 20
39 39 39 40 40 40 40 41 42 42 42 43 43 44 45 45 46 46 46 46 46 46 46 46 46 46 46 46 45 44 42 40 38 36 34 32 29 27 25 24 22 20 18 17
40 39 39 40 40 41 41 41 42 42 42 43 43 44 44 44 44 44 44 44 44 44 44 44 44 44 43 43 41 39 37 36 33 31 28 26 24 22 20 19 17 15 15 14

GEFSNGP_500_meanwind_114.txt.gz
Wind_Speed
19 19 20 20 20 19 18 17 16 14 14 12 13 12 12 12 12 11 11 11 12 12 12 11 10 10 10 10 10 11 11 12 13 14 15 16 17 19 20 22 23 25 26 27
20 20 21 21 20 20 19 18 16 14 14 14 14 14 13 12 12 12 12 12 12 13 13 12 11 11 12 12 12 13 13 14 15 16 17 18 20 21 23 24 25 27 27 28
20 20 21 22 19 20 20 19 18 16 14 14 14 15 14 13 13 13 13 13 13 13 13 13 13 13 14 14 15 15 16 16 17 19 20 21 22 24 25 26 27 28 29 30
21 21 22 18 19 19 18 18 17 16 14 15 15 15 15 15 15 15 15 15 15 15 15 15 15 15 16 17 17 18 19 19 20 21 23 24 25 26 27 28 29 30 31 32
23 23 21 19 18 18 18 17 17 17 16 16 17 17 16 16 17 17 17 17 17 17 17 17 17 18 19 19 20 20 21 22 22 23 25 26 27 28 29 30 31 32 33 34
22 22 21 19 19 20 19 19 17 17 17 17 17 17 17 18 19 19 19 19 18 18 19 19 20 21 21 22 22 23 24 24 25 26 27 28 29 30 31 32 32 33 34 35
22 22 20 19 20 20 21 18 19 20 19 19 18 18 18 19 20 21 21 21 20 21 21 21 22 23 24 24 24 25 25 26 27 28 29 30 31 32 33 34 34 35 36 37
22 21 18 18 19 20 20 19 19 20 20 20 20 20 21 21 21 22 23 23 22 22 23 23 24 24 25 25 26 27 27 28 29 30 32 33 33 34 35 36 36 37 38 38
20 19 18 18 19 19 20 20 21 21 21 21 22 23 24 24 24 24 24 24 24 24 24 24 25 25 26 26 27 29 30 31 32 32 33 34 35 36 36 37 38 39 40 40
20 19 19 20 20 20 21 22 22 22 22 22 23 23 25 25 25 25 26 26 26 26 26 26 27 27 27 28 29 31 32 32 33 34 35 36 37 38 39 40 41 41 42 43
20 21 21 21 22 22 23 23 23 23 23 24 25 25 26 27 27 27 27 28 27 27 28 28 28 29 29 30 31 32 33 34 35 36 37 38 40 41 41 42 43 44 44 45
20 21 22 22 22 23 23 23 23 24 24 25 26 26 27 28 28 28 28 29 29 28 28 29 30 30 31 32 33 34 35 37 38 38 39 41 42 43 44 45 46 46 47 47
19 20 21 22 23 23 24 25 25 25 25 25 26 26 27 28 28 29 29 29 29 29 30 31 31 32 32 33 34 36 37 39 40 41 41 42 43 44 45 46 47 48 49 49
20 21 20 21 22 23 24 25 26 25 25 26 26 26 26 27 27 28 28 28 28 29 31 32 32 33 34 36 37 38 40 41 42 42 43 44 45 46 48 48 48 49 50 52
20 21 20 22 23 24 25 26 26 26 26 25 25 26 27 27 27 28 28 28 29 30 31 32 33 34 36 37 39 40 41 43 43 44 45 46 47 48 49 50 51 52 52 53
21 21 21 22 23 24 25 25 24 24 25 25 25 26 27 28 28 28 28 29 30 31 32 34 35 36 38 39 40 41 43 44 45 46 47 48 49 50 51 52 53 54 54 55
20 20 21 22 23 24 25 24 23 23 23 24 25 25 26 27 28 29 30 31 32 33 35 36 37 38 40 41 42 43 45 46 47 48 49 50 51 52 53 54 55 56 56 57
19 19 20 20 21 23 24 24 24 24 24 24 25 26 27 27 29 30 32 33 34 35 37 38 39 40 41 43 44 45 47 48 49 50 51 52 53 54 55 56 57 57 57 56
20 19 19 20 21 21 22 23 23 24 25 26 27 27 27 29 30 32 33 35 36 37 38 39 41 42 44 45 46 47 48 50 51 52 54 55 55 56 56 56 56 56 56 54
20 20 20 20 21 21 22 24 24 25 26 27 28 29 30 31 32 34 35 36 38 39 40 41 43 44 46 47 48 49 50 52 53 54 54 55 55 56 55 55 55 54 52 51
20 20 21 22 23 23 24 25 25 26 27 28 29 30 32 33 34 35 37 38 39 41 42 44 45 46 47 48 49 50 51 52 53 54 54 55 55 55 55 54 53 50 49 47
21 22 23 25 26 26 26 27 27 28 29 30 31 32 34 35 36 38 39 41 42 43 44 46 47 48 48 49 50 51 52 53 54 54 55 55 55 54 53 51 49 47 45 43
23 25 25 26 26 27 28 29 30 31 32 33 34 35 36 37 39 40 42 43 44 44 45 46 47 48 49 50 51 52 52 53 53 54 54 53 52 51 48 46 44 41 39 37
27 27 28 28 29 30 32 33 33 34 34 35 36 37 38 39 41 42 43 44 45 45 46 48 49 49 50 50 51 51 51 51 51 51 50 49 47 45 42 40 38 36 34 32
30 30 31 31 32 33 34 34 35 35 36 37 38 39 40 41 42 43 44 45 46 46 47 48 48 49 49 49 49 49 49 48 48 47 46 44 41 39 37 35 34 32 30 28
31 31 32 33 34 34 35 36 36 37 38 38 39 41 42 43 44 44 45 46 46 46 47 47 47 46 46 46 46 45 45 45 44 43 41 38 36 34 32 30 29 27 25 23
34 34 34 35 36 36 37 37 38 39 40 40 41 42 43 43 44 44 44 44 44 44 44 44 44 44 43 43 42 42 41 40 39 37 35 32 31 29 27 26 25 23 20 19

GEFSNGP_500_meanwind_120.txt.gz
Wind_Speed
24 23 23 22 21 21 21 18 16 15 16 16 15 14 13 12 11 11 11 11 12 12 12 13 13 13 13 13 14 14 15 15 15 15 16 17 18 19 19 20 21 21 22 23
25 24 23 23 22 21 21 20 18 17 18 18 16 15 14 13 13 13 12 13 13 13 14 14 14 15 15 15 16 16 16 17 17 17 18 19 19 20 21 22 23 23 24 24
24 24 24 24 22 21 21 20 20 19 18 19 18 17 16 15 14 14 14 14 14 15 14 15 15 16 17 17 17 18 18 19 19 20 20 21 22 23 23 24 25 25 26 26
24 24 24 21 20 20 21 21 21 20 20 21 20 19 18 17 16 16 15 15 16 16 16 16 17 17 18 19 19 20 20 21 21 22 23 23 24 25 25 26 26 27 28 28
25 23 22 22 20 20 21 21 21 21 21 22 21 19 19 18 18 18 17 17 17 18 18 18 19 20 20 21 22 22 23 23 24 25 25 26 26 27 27 28 29 29 30 30
26 24 22 23 21 21 21 21 21 22 22 22 21 21 21 20 20 20 19 19 19 19 20 21 21 22 22 23 23 24 25 26 27 27 27 28 28 29 29 30 31 31 31 32
24 25 25 24 22 21 22 22 21 21 22 23 22 23 23 22 22 21 22 21 22 22 22 22 23 24 25 26 26 27 28 28 29 29 29 30 31 31 31 32 32 33 33 34
23 24 25 24 23 22 22 21 21 22 23 23 23 23 23 23 24 24 24 23 23 23 24 25 25 26 27 27 28 29 30 30 30 30 31 32 32 33 33 34 34 35 35 36
23 24 24 23 23 22 22 22 22 22 23 23 24 24 24 24 24 25 26 26 26 26 27 28 28 29 29 30 30 31 31 31 31 32 32 33 34 35 36 36 37 37 37 38
22 23 24 24 24 23 22 22 23 22 23 23 24 25 25 25 25 26 28 28 29 29 30 30 30 30 31 32 31 32 32 33 33 34 34 35 36 36 37 37 38 39 40 41
23 23 23 25 25 24 24 24 23 23 24 25 25 25 26 27 27 28 29 29 30 30 31 31 32 32 33 33 33 34 35 35 35 35 35 36 37 38 38 39 40 41 42 43
23 23 24 24 25 25 25 25 25 25 25 26 27 27 27 28 28 29 30 31 32 32 32 33 34 35 35 34 34 35 36 36 37 37 38 39 39 40 41 42 42 43 44 45
21 22 22 23 23 24 25 25 26 25 25 26 27 27 28 28 30 30 30 32 33 33 34 35 35 36 37 36 36 37 37 38 39 40 40 40 41 42 42 43 44 46 47 48
20 21 22 22 23 23 24 25 26 26 25 26 26 27 28 29 30 31 31 31 32 33 34 34 34 34 34 35 37 38 38 39 40 40 41 43 43 44 45 46 47 48 49 50
19 20 21 22 22 23 24 24 24 25 25 26 27 28 29 29 30 31 31 32 32 33 34 34 34 34 35 37 38 38 39 40 41 42 42 43 44 45 46 47 48 50 51 52
18 19 21 22 23 23 24 24 24 25 25 26 27 28 29 30 30 31 31 32 32 33 34 34 35 36 37 37 38 38 39 41 42 43 44 45 46 47 48 49 50 52 53 54
18 19 20 21 22 23 23 23 23 24 25 26 26 27 28 29 29 30 31 31 32 33 34 35 36 38 38 38 39 40 41 42 43 44 45 46 47 49 50 51 53 54 55 56
18 19 21 21 21 22 23 23 23 24 24 25 25 26 26 26 27 28 29 29 31 33 35 36 36 37 39 40 40 41 42 43 44 45 47 48 49 51 52 53 54 55 56 57
18 18 19 20 21 22 23 24 24 24 24 25 25 26 26 27 27 28 30 31 32 33 34 34 36 37 39 40 41 42 43 45 46 47 49 50 51 52 53 54 55 56 57 58
19 19 20 21 22 22 23 24 24 25 26 26 27 27 28 28 29 30 31 32 33 34 35 36 37 38 40 41 42 44 45 46 48 49 50 51 52 53 54 56 56 56 56 56
20 21 22 23 24 24 24 24 25 26 26 27 28 29 30 30 31 32 32 34 35 36 37 38 39 40 41 42 44 45 46 47 49 50 51 52 53 54 55 55 55 55 54 52
21 22 23 24 24 25 25 26 27 28 29 29 30 31 32 33 34 35 36 36 37 38 39 39 41 42 43 44 45 46 47 48 49 50 51 52 53 53 53 53 53 52 50 48
22 24 25 25 25 26 27 28 29 30 31 31 32 33 34 35 36 36 37 37 38 39 40 41 42 42 43 45 46 47 48 49 50 51 51 52 52 52 51 51 50 48 46 44
26 27 28 28 28 29 29 30 30 31 31 32 33 34 35 35 36 37 38 39 39 40 41 42 43 44 45 46 47 48 49 49 49 49 49 49 49 48 48 47 45 43 41 39
27 28 29 30 30 30 31 32 32 33 33 34 35 35 36 36 37 38 38 39 40 41 42 43 44 45 45 46 47 47 47 47 47 46 46 45 45 44 43 41 39 37 35 33
28 28 29 30 31 32 32 32 33 33 34 34 35 36 36 37 38 39 40 41 42 42 43 43 44 44 45 45 45 45 45 44 43 43 42 41 40 38 37 35 33 31 29 27
29 29 30 31 32 32 33 34 34 34 34 34 35 36 37 37 38 39 40 40 41 41 41 42 42 42 42 42 41 41 41 40 40 39 38 36 34 33 32 30 28 26 25 23